Rhapsody Of The Seas — C6UA2 — position and weather

sailwx.info

Track history (hours):
 
Tides and Currents Weather Stations Pressure Air Temp Water Temp Dewpoint Dewpoint Depression Visibility Wind Speed Wind Dir Waves Ship Positions

Rhapsody Of The Seas

Last reported at 2018-May-21 20:59 UTC. Time now 2018-May-22 06:22 UTC.
Position N 43°07' E 009°28'.

Type: Passenger vessel. MMSI: 311805000.

Date/timePositionNaut miles runAvg speedWind from/ knotsBaromVisibWave heightAir tempDewpointWater temp
2018-May-21 20:59N 43°07' E 009°28'1020.3
2018-May-21 20:29N 43°08' E 009°14'1520.4
2018-May-21 19:45N 43°10' E 008°54'7120.2
2018-May-21 16:13N 43°21' E 007°17'419.5
2018-May-21 16:00N 43°23' E 007°12'919.1
2018-May-21 15:30N 43°28' E 007°01'4 7.1
2018-May-21 15:00N 43°32' E 007°01'0 0.1
2018-May-21 14:25N 43°32' E 007°01'0 0.0
2018-May-21 13:58N 43°32' E 007°01'0 0.0
2018-May-21 13:25N 43°32' E 007°01'0 0.0
2018-May-21 12:52N 43°32' E 007°01'0 0.1
2018-May-21 12:22N 43°32' E 007°01'0 0.0
2018-May-21 11:52N 43°32' E 007°01'0 0.0
2018-May-21 11:25N 43°32' E 007°01'0 0.0
2018-May-21 10:58N 43°32' E 007°01'0 0.0
2018-May-21 10:25N 43°32' E 007°01'0 0.0
2018-May-21 09:58N 43°32' E 007°01'0 0.0
2018-May-21 09:28N 43°32' E 007°01'0 0.0
2018-May-21 08:58N 43°32' E 007°01'0 0.1
2018-May-21 08:25N 43°32' E 007°01'0 0.1
2018-May-21 07:58N 43°32' E 007°01'0 0.0
2018-May-21 07:28N 43°32' E 007°01'0 0.0
2018-May-21 06:58N 43°32' E 007°01'0 0.9
2018-May-21 06:30N 43°32' E 007°01'5 9.9
2018-May-21 06:01N 43°27' E 006°58'24017.5
2018-May-20 16:19N 41°19' E 002°23'618.1
2018-May-20 15:59N 41°17' E 002°16'510.5
2018-May-20 15:30N 41°19' E 002°10'2 3.4
2018-May-20 14:59N 41°21' E 002°10'0 0.0
2018-May-20 14:29N 41°21' E 002°10'0 0.0
2018-May-20 13:59N 41°21' E 002°10'0 0.0
2018-May-20 13:29N 41°21' E 002°10'0 0.0
2018-May-20 12:59N 41°21' E 002°10'0 0.0
2018-May-20 12:26N 41°21' E 002°10'0 0.0
2018-May-20 11:59N 41°21' E 002°10'0 0.0
2018-May-20 11:29N 41°21' E 002°10'0 0.0
2018-May-20 10:59N 41°21' E 002°10'0 0.0
2018-May-20 10:29N 41°21' E 002°10'0 0.0
2018-May-20 09:59N 41°21' E 002°10'0 0.0
2018-May-20 09:29N 41°21' E 002°10'0 0.0
2018-May-20 08:59N 41°21' E 002°10'0 0.0
2018-May-20 08:29N 41°21' E 002°10'0 0.0
2018-May-20 07:59N 41°21' E 002°10'0 0.0
2018-May-20 07:29N 41°21' E 002°10'0 0.0
2018-May-20 06:59N 41°21' E 002°10'0 0.0
2018-May-20 06:29N 41°21' E 002°10'0 0.0
2018-May-20 05:59N 41°21' E 002°10'0 0.0
2018-May-20 05:29N 41°21' E 002°10'0 0.0
2018-May-20 04:59N 41°21' E 002°10'0 0.0
2018-May-20 04:29N 41°21' E 002°10'0 0.0
2018-May-20 03:55N 41°21' E 002°10'0 0.9
2018-May-20 03:31N 41°21' E 002°10'3 5.4
2018-May-20 03:01N 41°18' E 002°11'713.4
2018-May-20 02:30N 41°12' E 002°09'815.4
2018-May-20 02:00N 41°05' E 002°04'23015.2
2018-May-19 10:52N 37°43' W 000°19'615.5
2018-May-19 10:30N 37°39' W 000°24'815.7
2018-May-19 10:00N 37°32' W 000°29'915.7
2018-May-19 09:24N 37°26' W 000°38'615.6
2018-May-19 09:00N 37°22' W 000°44'815.7
2018-May-19 08:28N 37°16' W 000°52'221 8.3
2018-May-18 05:51N 36°03' W 005°13'721.2
2018-May-18 05:31N 35°59' W 005°19'70319.2
2018-May-16 16:48N 28°33' W 016°01'517.8
2018-May-16 16:30N 28°30' W 016°07'713.3
2018-May-16 16:01N 28°29' W 016°14'1 1.3
2018-May-16 15:28N 28°28' W 016°15'0 0.0
2018-May-16 14:58N 28°28' W 016°15'0 0.0
2018-May-16 14:28N 28°28' W 016°15'0 0.0
2018-May-16 13:58N 28°28' W 016°15'0 0.0
2018-May-16 13:28N 28°28' W 016°15'0 0.0
2018-May-16 12:58N 28°28' W 016°15'0 0.0
2018-May-16 12:28N 28°28' W 016°15'0 0.0
2018-May-16 11:58N 28°28' W 016°15'0 0.0
2018-May-16 11:28N 28°28' W 016°15'0 0.0
2018-May-16 10:58N 28°28' W 016°15'0 0.0
2018-May-16 10:28N 28°28' W 016°15'0 0.0
2018-May-16 09:58N 28°28' W 016°15'0 0.0
2018-May-16 09:28N 28°28' W 016°15'0 0.0
2018-May-16 08:58N 28°28' W 016°15'0 0.0
2018-May-16 08:28N 28°28' W 016°15'0 0.0
2018-May-16 07:58N 28°28' W 016°15'0 0.1
2018-May-16 07:28N 28°28' W 016°15'0 0.0
2018-May-16 06:58N 28°28' W 016°15'0 0.0
2018-May-16 06:28N 28°28' W 016°15'0 0.0
2018-May-16 06:01N 28°28' W 016°15'1 1.6
2018-May-16 05:30N 28°29' W 016°14'3 5.2
2018-May-16 05:00N 28°28' W 016°11'510.7
2018-May-16 04:30N 28°31' W 016°06'  
Track history (hours):
 
Tides and Currents Weather Stations Pressure Air Temp Water Temp Dewpoint Dewpoint Depression Visibility Wind Speed Wind Dir Waves Ship Positions

Rhapsody Of The Seas

Last reported at 2018-May-21 20:59 UTC. Time now 2018-May-22 06:22 UTC.
Position N 43°07' E 009°28'.

Type: Passenger vessel. MMSI: 311805000.

Date/timePositionNaut miles runAvg speedWind from/ knotsBaromVisibWave heightAir tempDewpointWater temp
2018-May-21 20:59N 43°07' E 009°28'1020.3
2018-May-21 20:29N 43°08' E 009°14'1520.4
2018-May-21 19:45N 43°10' E 008°54'7120.2
2018-May-21 16:13N 43°21' E 007°17'419.5
2018-May-21 16:00N 43°23' E 007°12'919.1
2018-May-21 15:30N 43°28' E 007°01'4 7.1
2018-May-21 15:00N 43°32' E 007°01'0 0.1
2018-May-21 14:25N 43°32' E 007°01'0 0.0
2018-May-21 13:58N 43°32' E 007°01'0 0.0
2018-May-21 13:25N 43°32' E 007°01'0 0.0
2018-May-21 12:52N 43°32' E 007°01'0 0.1
2018-May-21 12:22N 43°32' E 007°01'0 0.0
2018-May-21 11:52N 43°32' E 007°01'0 0.0
2018-May-21 11:25N 43°32' E 007°01'0 0.0
2018-May-21 10:58N 43°32' E 007°01'0 0.0
2018-May-21 10:25N 43°32' E 007°01'0 0.0
2018-May-21 09:58N 43°32' E 007°01'0 0.0
2018-May-21 09:28N 43°32' E 007°01'0 0.0
2018-May-21 08:58N 43°32' E 007°01'0 0.1
2018-May-21 08:25N 43°32' E 007°01'0 0.1
2018-May-21 07:58N 43°32' E 007°01'0 0.0
2018-May-21 07:28N 43°32' E 007°01'0 0.0
2018-May-21 06:58N 43°32' E 007°01'0 0.9
2018-May-21 06:30N 43°32' E 007°01'5 9.9
2018-May-21 06:01N 43°27' E 006°58'24017.5
2018-May-20 16:19N 41°19' E 002°23'618.1
2018-May-20 15:59N 41°17' E 002°16'510.5
2018-May-20 15:30N 41°19' E 002°10'2 3.4
2018-May-20 14:59N 41°21' E 002°10'0 0.0
2018-May-20 14:29N 41°21' E 002°10'0 0.0
2018-May-20 13:59N 41°21' E 002°10'0 0.0
2018-May-20 13:29N 41°21' E 002°10'0 0.0
2018-May-20 12:59N 41°21' E 002°10'0 0.0
2018-May-20 12:26N 41°21' E 002°10'0 0.0
2018-May-20 11:59N 41°21' E 002°10'0 0.0
2018-May-20 11:29N 41°21' E 002°10'0 0.0
2018-May-20 10:59N 41°21' E 002°10'0 0.0
2018-May-20 10:29N 41°21' E 002°10'0 0.0
2018-May-20 09:59N 41°21' E 002°10'0 0.0
2018-May-20 09:29N 41°21' E 002°10'0 0.0
2018-May-20 08:59N 41°21' E 002°10'0 0.0
2018-May-20 08:29N 41°21' E 002°10'0 0.0
2018-May-20 07:59N 41°21' E 002°10'0 0.0
2018-May-20 07:29N 41°21' E 002°10'0 0.0
2018-May-20 06:59N 41°21' E 002°10'0 0.0
2018-May-20 06:29N 41°21' E 002°10'0 0.0
2018-May-20 05:59N 41°21' E 002°10'0 0.0
2018-May-20 05:29N 41°21' E 002°10'0 0.0
2018-May-20 04:59N 41°21' E 002°10'0 0.0
2018-May-20 04:29N 41°21' E 002°10'0 0.0
2018-May-20 03:55N 41°21' E 002°10'0 0.9
2018-May-20 03:31N 41°21' E 002°10'3 5.4
2018-May-20 03:01N 41°18' E 002°11'713.4
2018-May-20 02:30N 41°12' E 002°09'815.4
2018-May-20 02:00N 41°05' E 002°04'23015.2
2018-May-19 10:52N 37°43' W 000°19'615.5
2018-May-19 10:30N 37°39' W 000°24'815.7
2018-May-19 10:00N 37°32' W 000°29'915.7
2018-May-19 09:24N 37°26' W 000°38'615.6
2018-May-19 09:00N 37°22' W 000°44'815.7
2018-May-19 08:28N 37°16' W 000°52'221 8.3
2018-May-18 05:51N 36°03' W 005°13'721.2
2018-May-18 05:31N 35°59' W 005°19'70319.2
2018-May-16 16:48N 28°33' W 016°01'517.8
2018-May-16 16:30N 28°30' W 016°07'713.3
2018-May-16 16:01N 28°29' W 016°14'1 1.3
2018-May-16 15:28N 28°28' W 016°15'0 0.0
2018-May-16 14:58N 28°28' W 016°15'0 0.0
2018-May-16 14:28N 28°28' W 016°15'0 0.0
2018-May-16 13:58N 28°28' W 016°15'0 0.0
2018-May-16 13:28N 28°28' W 016°15'0 0.0
2018-May-16 12:58N 28°28' W 016°15'0 0.0
2018-May-16 12:28N 28°28' W 016°15'0 0.0
2018-May-16 11:58N 28°28' W 016°15'0 0.0
2018-May-16 11:28N 28°28' W 016°15'0 0.0
2018-May-16 10:58N 28°28' W 016°15'0 0.0
2018-May-16 10:28N 28°28' W 016°15'0 0.0
2018-May-16 09:58N 28°28' W 016°15'0 0.0
2018-May-16 09:28N 28°28' W 016°15'0 0.0
2018-May-16 08:58N 28°28' W 016°15'0 0.0
2018-May-16 08:28N 28°28' W 016°15'0 0.0
2018-May-16 07:58N 28°28' W 016°15'0 0.1
2018-May-16 07:28N 28°28' W 016°15'0 0.0
2018-May-16 06:58N 28°28' W 016°15'0 0.0
2018-May-16 06:28N 28°28' W 016°15'0 0.0
2018-May-16 06:01N 28°28' W 016°15'1 1.6
2018-May-16 05:30N 28°29' W 016°14'3 5.2
2018-May-16 05:00N 28°28' W 016°11'510.7
2018-May-16 04:30N 28°31' W 016°06'  

Dump ship's entire track history